Location: Wien
(48.2082°N, 16.3738°E)
Time: 08:54:46
(UTC+01:00)

NOAA 18 - Visible Passes

Search period start: 26 March 2019 00:00
Search period end: 05 April 2019 01:00
Orbit: 840 x 862 km, 99.1° (Epoch: 25 March)

Date Brightness Start Highest point End Pass type
(mag) Time Alt. Az. Time Alt. Az. Time Alt. Az.
26 Mar 5.1 19:26:01 10° SSE 19:31:27 74° ENE 19:36:55 10° NNW visible
26 Mar 7.6 21:09:01 10° SW 21:12:42 18° W 21:16:24 10° NW visible
27 Mar 5.3 19:14:25 10° SSE 19:19:46 60° ENE 19:25:09 10° N visible
27 Mar 7.3 20:56:37 10° SW 21:00:50 23° W 21:05:05 10° NW visible
28 Mar 5.5 19:02:53 10° SE 19:08:07 49° ENE 19:13:21 10° N visible
28 Mar 7.0 20:44:22 10° SSW 20:49:00 28° W 20:53:40 10° NW visible
29 Mar 5.7 18:51:26 10° SE 18:56:28 40° ENE 19:01:31 10° N visible
29 Mar 6.6 20:32:15 10° SSW 20:37:11 35° W 20:42:10 10° NNW visible
30 Mar 6.3 20:20:14 10° S 20:25:23 43° W 20:30:36 10° NNW visible
31 Mar 5.9 21:08:18 10° S 21:13:37 53° W 21:18:59 10° NNW visible
01 Apr 5.5 20:56:27 10° S 21:01:52 67° WSW 21:07:20 10° NNW visible
02 Apr 5.3 20:44:41 10° SSE 20:50:08 82° WSW 20:55:39 10° NNW visible
02 Apr 7.8 22:29:17 10° WSW 22:31:40 13° W 22:34:04 10° WNW visible
03 Apr 5.2 20:32:58 10° SSE 20:38:25 82° ENE 20:43:55 10° NNW visible
03 Apr 7.7 22:16:26 10° SW 22:19:46 16° W 22:23:07 10° NW visible
04 Apr 5.2 20:21:21 10° SSE 20:26:44 67° ENE 20:32:10 10° N visible
04 Apr 7.4 22:03:56 10° SW 22:07:54 20° W 22:11:54 10° NW visible
